Flag for China Weather past 2 weeks in Tsingtao, Shandong, China

Now
48 °F

Passing clouds.


Feels Like: 46 °F
Forecast: 37 / 46 °F
Wind: 6 mph from Southwest

Location: Qingdao Airport

Current Time: Mar 6, 2015 at 2:26:18 PM

Latest Report: Mar 6, 2015 at 1:00 PM


Visibility: N/A

Pressure: 30.21 "Hg

Humidity: 29%

Dew point: 18 °F

Location of TsingtaoLocation

Historic Weather in Tsingtao — Graph

°F

Tsingtao temperature yesterday

Maximum temperature yesterday: 43 °F (at 2:00 PM)
Minimum temperature yesterday: 25 °F (at 3:00 AM)
Average temperature yesterday: 34 °F

Past Weeks' High & Low Weather Summary

 TemperatureHumidityPressure
High55 °F (Feb 25, 12:00 PM)93% (Feb 21, 1:00 AM)30.51 "Hg (Feb 21, 1:00 AM)
Low23 °F (Mar 4, 4:00 AM)10% (Mar 1, 3:00 PM)29.83 "Hg (Mar 3, 4:00 AM)
Average39 °F51%30.20 "Hg
* Reported Feb 19 1:00 PM — Mar 6 1:00 PM, Tsingtao, Weather by CustomWeather, © 2015

Note: Actual official high and low records may vary slightly from our data, if they occured in-between our weather recording intervals... More about our weather records

Advertising

Tsingtao weather history for previous 24 hours

 ConditionsComfort  
Time TempWeatherWind HumidityBarometerVisibility
1:00 PM
Fri, Mar 6
48 °FPassing clouds.6 mph29%30.21 "HgN/A
12:00 PM46 °FPassing clouds.8 mph37%30.24 "HgN/A
11:00 AM45 °FPassing clouds.10 mph46%30.27 "HgN/A
10:00 AM43 °FPassing clouds.6 mph42%30.27 "HgN/A
9:00 AM41 °FSunny.8 mph49%30.27 "Hg10 mi
8:00 AM36 °FSunny.No wind70%30.30 "Hg10 mi
7:00 AM28 °FSunny.1 mph74%30.27 "Hg10 mi
6:00 AM27 °FClear.No wind74%30.27 "Hg10 mi
5:00 AM27 °FClear.1 mph69%30.27 "Hg10 mi
4:00 AM28 °FClear.1 mph69%30.27 "Hg10 mi
3:00 AM30 °FClear.3 mph64%30.30 "Hg10 mi
2:00 AM30 °FClear.3 mph64%30.30 "Hg10 mi
1:00 AM30 °FClear.6 mph64%30.33 "Hg10 mi
12:00 AM32 °FClear.3 mph60%30.33 "Hg10 mi
11:00 PM
Thu, Mar 5
32 °FClear.6 mph55%30.33 "Hg10 mi
10:00 PM32 °FClear.6 mph51%30.33 "Hg10 mi
9:00 PM32 °FClear.6 mph55%30.33 "Hg10 mi
8:00 PM34 °FClear.8 mph48%30.33 "Hg10 mi
7:00 PM34 °FClear.8 mph48%30.33 "Hg10 mi
6:00 PM36 °FClear.10 mph44%30.30 "Hg10 mi
5:00 PM37 °FSunny.10 mph41%30.30 "Hg10 mi
4:00 PM39 °FSunny.10 mph39%30.33 "Hg10 mi
3:00 PM41 °FPassing clouds.8 mph42%30.33 "HgN/A
2:00 PM43 °FPassing clouds.8 mph31%30.33 "HgN/A
Weather by CustomWeather, © 2015

See weather overviewHow to use our weather pages